Flag for U.S.A. Weather past 2 weeks in Cleveland, Tennessee, U.S.A.

Now
44 °F

Drizzle. Fog.


Feels Like: 44 °F
Forecast: 41 / 56 °F
Wind: No wind

Location: Lovell Field

Current Time: Mar 3, 2015 at 8:15:12 AM

Latest Report: Mar 3, 2015 at 7:53 AM


Visibility: 1 mi

Pressure: 30.22 "Hg

Humidity: 93%

Dew point: 42 °F

Location of ClevelandLocation

Historic Weather in Cleveland — Graph

°F

Cleveland temperature yesterday

Maximum temperature yesterday: 55 °F (at 3:53 PM)
Minimum temperature yesterday: 45 °F (at 4:04 AM)
Average temperature yesterday: 48 °F

Past Weeks' High & Low Weather Summary

 TemperatureHumidityPressure
High55 °F (Mar 2, 3:53 PM)100% (Feb 22, 4:53 AM)30.63 "Hg (Feb 22, 4:53 AM)
Low8 °F (Feb 19, 6:53 AM)27% (Feb 20, 1:53 PM)29.78 "Hg (Feb 16, 7:53 PM)
Average34 °F69%30.22 "Hg
* Reported Feb 16 6:53 AM — Mar 3 6:53 AM, Cleveland, Weather by CustomWeather, © 2015

Note: Actual official high and low records may vary slightly from our data, if they occured in-between our weather recording intervals... More about our weather records

Advertising

Cleveland weather history for previous 24 hours

 ConditionsComfort  
Time TempWeatherWind HumidityBarometerVisibility
6:53 AM
Tue, Mar 3
43 °FLight rain. Fog.No wind97%30.22 "Hg1 mi
5:53 AM45 °FDrizzle. Fog.No wind80%30.22 "Hg4 mi
4:53 AM46 °FOvercast.No wind71%30.20 "Hg10 mi
3:53 AM46 °FOvercast.5 mph68%30.21 "Hg10 mi
2:53 AM46 °FOvercast.No wind73%30.22 "Hg10 mi
1:53 AM46 °FOvercast.5 mph73%30.24 "Hg10 mi
1:00 AM46 °FMostly cloudy.3 mph73%30.24 "Hg10 mi
11:53 PM
Mon, Mar 2
47 °FLight rain. Overcast.7 mph71%30.27 "Hg7 mi
10:53 PM48 °FOvercast.3 mph66%30.30 "Hg10 mi
9:53 PM48 °FMostly cloudy.6 mph63%30.29 "Hg10 mi
8:53 PM49 °FMostly cloudy.6 mph66%30.31 "Hg10 mi
7:53 PM49 °FLight rain. Overcast.10 mph66%30.32 "Hg10 mi
6:53 PM50 °FPartly cloudy.7 mph63%30.30 "Hg10 mi
5:53 PM52 °FScattered clouds.9 mph59%30.29 "Hg10 mi
4:53 PM54 °FScattered clouds.10 mph57%30.29 "Hg10 mi
3:53 PM55 °FScattered clouds.9 mph57%30.30 "Hg10 mi
2:53 PM53 °FScattered clouds.10 mph61%30.31 "Hg10 mi
1:53 PM52 °FBroken clouds.12 mph64%30.35 "Hg10 mi
12:53 PM50 °FMore clouds than sun.12 mph66%30.38 "Hg10 mi
11:53 AM47 °FMore clouds than sun.13 mph74%30.41 "Hg10 mi
10:53 AM46 °FMostly cloudy.12 mph77%30.41 "Hg10 mi
9:53 AM45 °FCloudy.14 mph82%30.41 "Hg10 mi
8:53 AM45 °FCloudy.12 mph86%30.40 "Hg10 mi
Weather by CustomWeather, © 2015

See weather overviewHow to use our weather pages